Temperature
24 23 23 22 22 21 21 21 20 20 20 19 19 19 19 18 18 18 18 18 18 18 18 18 18 18 18 18 18 18 18 18 18 18 18 18 18 18 17 17 17 17 17
23 23 22 22 22 22 21 21 20 20 20 19 19 19 19 18 18 18 18 18 17 18 18 18 18 18 18 18 18 18 18 18 18 18 18 17 18 18 18 17 17 17 17
23 23 22 22 22 21 21 21 20 20 20 19 19 19 18 18 18 18 18 18 17 17 17 18 17 17 17 18 18 18 18 18 18 18 17 17 18 18 18 18 18 17 17
23 23 23 22 22 22 21 21 20 20 20 19 19 19 19 18 18 18 18 17 17 17 17 18 18 17 17 17 17 17 17 17 17 17 17 17 18 17 17 18 18 17 17
23 23 23 23 22 22 21 21 20 20 19 19 19 19 18 18 18 18 18 17 17 17 17 17 17 17 17 17 17 17 17 17 17 17 17 17 17 17 17 17 17 17 17
23 23 23 23 22 22 21 21 20 20 19 19 19 19 18 18 18 18 18 17 17 17 17 17 17 17 17 17 17 17 17 17 17 17 17 17 17 17 17 17 17 17 17
23 23 23 22 22 22 21 21 20 20 19 19 19 18 18 18 18 18 17 17 17 17 17 17 17 17 17 17 17 17 17 17 17 17 17 17 17 17 17 17 17 17 17
24 23 23 23 22 22 21 21 20 20 19 19 19 18 18 18 18 18 17 17 17 17 17 17 17 17 17 17 17 17 17 17 17 17 17 17 17 17 17 17 17 17 16
24 23 23 23 22 22 21 21 20 20 20 19 19 18 18 18 18 18 17 17 17 17 17 17 17 17 17 17 17 17 17 17 17 17 17 17 17 17 17 17 16 16 16
23 23 23 23 22 22 21 21 20 20 20 19 19 19 18 18 18 18 17 17 17 17 17 17 17 17 17 17 17 17 17 17 17 17 16 16 16 16 16 16 16 16 16
24 24 23 23 22 22 21 21 20 20 19 19 19 18 18 18 18 17 17 17 17 17 17 17 17 17 17 16 16 16 16 16 16 16 16 16 16 16 16 16 16 16 16
24 24 23 23 22 22 22 21 21 20 19 19 19 19 18 18 18 18 17 17 17 17 17 17 17 16 16 16 16 16 16 16 16 16 16 16 15 15 15 15 15 15 15
24 24 23 22 22 22 21 21 20 20 19 19 19 18 18 18 18 17 17 17 17 17 16 16 16 16 16 16 16 16 16 16 16 15 15 15 15 15 15 15 15 15 15
24 23 23 22 22 22 22 21 20 20 19 19 19 18 18 18 17 17 17 17 17 16 16 16 16 16 16 16 16 16 15 15 15 15 15 15 15 15 15 15 14 14 14
23 23 23 22 22 22 21 21 20 20 19 19 19 18 18 17 17 17 17 16 16 16 16 16 16 16 15 15 15 15 15 15 15 15 14 14 14 14 14 14 14 14 14
23 23 23 22 22 22 21 21 20 20 19 19 19 18 18 17 17 17 17 16 16 16 16 16 15 15 15 15 15 15 15 15 14 14 14 14 14 14 14 13 13 13 13
23 23 22 22 22 22 21 21 20 20 19 19 18 18 17 17 17 16 16 16 16 16 15 15 15 15 15 14 14 14 14 14 14 14 13 13 13 13 13 13 13 13 12
23 23 22 22 22 21 21 20 20 19 19 18 18 17 17 17 16 16 16 15 15 15 15 15 14 14 14 14 14 14 14 13 13 13 13 13 12 12 12 12 12 12 12
23 23 22 22 21 21 20 20 19 19 18 18 17 17 17 16 16 16 15 15 15 15 14 14 14 14 13 13 13 13 13 13 13 12 12 12 12 11 11 11 11 11 11
23 22 22 21 21 20 20 19 19 18 18 18 17 17 16 16 15 15 15 14 14 14 14 13 13 13 13 13 12 12 12 12 12 12 11 11 11 11 11 11 11 10 10
21 21 21 20 20 19 19 19 18 18 18 17 17 16 16 15 15 15 14 14 14 14 13 13 13 12 12 12 12 12 12 12 11 11 11 11 10 10 10 10 10 10 10
20 20 20 19 19 19 18 18 18 17 17 16 16 15 15 15 14 14 14 14 13 13 13 12 12 12 12 11 11 11 11 11 11 10 10 10 10 10 10 9 9 9 9
19 19 19 18 18 18 18 18 17 17 16 16 15 15 14 14 14 14 13 13 13 12 12 12 12 11 11 11 10 10 10 10 10 10 9 9 9 9 9 9 9 9 9
19 18 18 18 17 17 17 17 16 16 16 15 15 14 14 14 13 13 13 13 12 12 12 11 11 11 10 10 10 10 10 10 9 9 9 9 9 9 9 8 8 8 8
18 18 18 17 17 16 16 16 16 15 15 15 14 14 14 13 13 13 12 12 12 12 11 11 11 10 10 10 9 9 9 9 9 9 9 9 8 8 8 8 8 8 8
17 17 17 16 16 16 16 15 15 15 15 14 14 14 13 13 13 12 12 11 11 11 10 10 10 10 9 9 9 9 9 9 9 9 8 8 8 8 8 7 7 7 7
Wind_Speed
10 10 11 12 11 9 9 9 8 7 6 4 3 3 3 3 3 4 6 7 6 5 4 3 3 3 3 3 3 2 2 1 1 1 2 3 2 3 4 4 5 7 11
10 10 10 10 11 10 9 8 8 7 6 4 3 3 3 3 3 3 4 6 6 5 4 3 2 3 2 3 3 3 2 1 2 3 1 2 4 3 3 3 4 5 7
15 13 12 10 10 10 9 9 8 7 6 5 3 2 2 1 1 2 2 4 6 6 5 5 4 3 3 3 4 4 4 2 1 2 3 3 3 3 3 2 2 3 4
12 12 12 11 11 10 8 7 6 5 5 5 5 4 4 3 3 3 3 3 5 6 6 5 4 4 3 3 4 4 3 4 2 1 1 3 4 2 2 3 2 2 3
14 13 13 12 10 9 8 7 7 5 5 5 5 5 3 3 2 2 3 3 3 4 5 5 4 3 3 4 3 3 3 3 3 2 2 1 1 2 2 2 3 2 2
14 12 10 9 8 8 8 7 7 5 5 5 5 5 4 3 3 2 3 3 2 2 4 4 4 4 3 4 4 3 4 3 3 3 3 2 2 2 3 3 3 3 3
13 12 12 11 10 10 9 8 7 6 5 5 5 5 5 4 4 4 4 4 3 2 4 3 3 3 3 3 3 3 3 3 3 3 3 3 3 3 3 3 3 2 2
12 12 13 12 11 11 10 9 8 6 5 5 4 3 3 2 2 3 3 4 3 3 3 3 3 3 3 3 2 2 3 3 3 3 3 2 2 2 3 3 3 1 2
12 11 11 11 10 10 10 9 8 6 5 5 4 3 2 2 2 2 2 2 2 2 2 2 3 2 2 2 2 2 2 2 2 2 2 2 2 2 2 2 3 3 2
11 11 10 10 10 9 8 8 8 7 5 5 4 3 2 2 2 1 1 1 1 2 2 2 2 2 2 2 2 2 2 2 2 2 1 2 2 1 1 1 1 3 3
13 12 11 10 10 9 9 8 8 6 5 5 3 3 3 2 2 2 2 2 2 2 2 1 1 1 1 1 1 1 2 2 2 1 1 2 1 1 1 1 1 0 2
12 11 11 10 10 10 9 9 8 7 6 5 5 4 3 3 4 3 3 3 3 2 2 2 1 1 1 1 1 1 1 1 1 1 0 1 1 0 1 1 0 0 1
10 10 10 10 9 9 8 8 8 8 6 6 5 4 4 4 4 3 3 3 3 3 2 2 2 1 1 0 0 0 1 0 0 0 0 0 0 1 1 1 1 0 0
12 11 9 9 9 9 8 8 8 8 7 6 6 5 4 4 4 4 3 3 3 4 3 3 2 2 2 2 2 2 2 2 2 2 2 2 1 1 1 1 1 1 1
11 11 10 9 8 8 8 8 7 7 8 7 6 5 5 4 4 4 4 4 4 4 4 4 4 4 3 3 3 2 3 3 3 4 4 5 7 8 5 3 2 2 1
12 11 10 10 10 9 9 8 8 7 7 8 7 6 5 5 4 4 4 4 4 4 5 5 5 5 4 5 5 4 4 4 4 4 5 6 7 9 10 10 9 6 4
12 12 11 10 10 9 10 10 8 8 8 8 7 6 6 5 4 5 5 5 4 5 6 5 5 6 7 8 9 9 7 6 5 4 4 5 5 6 5 8 10 10 10
11 10 9 9 7 7 9 9 9 9 8 7 7 6 6 6 5 6 6 5 5 5 5 5 6 6 7 9 10 10 8 7 6 6 5 5 5 5 4 5 7 6 6
10 10 9 9 8 9 9 10 10 9 8 7 7 7 7 7 7 7 6 5 6 6 6 5 6 6 7 9 9 8 6 7 6 6 6 5 5 6 5 5 5 5 5
8 9 9 9 9 8 9 11 10 9 8 7 7 7 7 8 8 7 7 5 6 6 6 7 6 6 6 7 9 8 5 6 5 5 5 7 6 6 6 4 5 5 3
9 10 10 10 8 8 10 11 9 7 7 8 8 8 8 8 8 7 7 7 7 7 7 7 6 6 7 7 8 8 5 5 4 4 4 4 7 8 8 6 4 2 2
10 10 10 9 7 8 10 10 8 7 8 9 9 8 7 7 7 8 7 7 7 8 6 6 6 5 5 7 7 8 7 5 5 3 2 4 8 9 8 6 6 7 5
9 8 10 10 7 7 9 10 8 9 9 10 9 8 7 7 6 7 7 6 6 6 5 5 5 4 4 5 9 8 8 7 4 3 5 6 8 8 7 9 9 7 4
8 8 10 9 7 6 7 8 9 9 10 10 9 8 8 7 7 6 5 5 5 5 5 4 4 3 3 4 4 4 5 6 5 4 5 7 9 8 7 7 6 5 3
6 7 8 8 8 7 8 8 9 10 10 10 8 8 7 8 7 7 6 5 3 4 5 4 4 4 2 1 2 3 3 2 3 3 4 5 5 5 6 5 5 5 5
7 7 7 7 7 7 8 7 8 10 11 9 8 7 7 6 6 7 7 10 7 8 8 7 6 3 3 4 6 7 7 7 7 6 5 4 4 4 4 4 4 4 4
Wind_Direction
169 161 161 161 157 156 159 164 163 168 160 156 154 153 166 176 179 187 195 192 188 178 170 175 178 177 176 190 177 159 164 198 151 81 351 325 283 237 222 210 197 202 208
159 163 162 161 164 165 166 165 168 170 172 173 170 168 162 177 181 186 187 193 191 185 185 177 186 191 177 184 184 165 161 210 158 142 104 344 335 312 249 220 206 205 203
171 171 171 170 163 168 173 172 174 172 173 167 144 128 111 105 156 194 203 201 194 193 193 191 195 201 188 195 202 185 172 197 229 162 153 159 231 290 316 272 224 206 198
174 175 173 171 172 176 169 159 165 167 167 161 159 160 169 188 207 201 204 204 200 201 201 199 203 200 189 198 210 192 181 174 208 226 197 185 172 175 292 320 294 244 221
177 177 174 171 169 162 158 152 154 161 159 162 167 167 181 201 206 189 193 207 216 212 210 206 203 197 193 200 207 191 180 175 180 190 196 188 165 172 176 266 300 311 264
175 172 163 152 150 149 148 148 150 156 162 167 171 177 186 196 193 196 197 212 223 224 224 214 204 199 196 200 205 200 191 187 180 182 181 177 183 204 188 222 253 267 278
170 164 158 158 157 155 154 154 155 163 171 170 176 187 194 199 201 200 201 207 216 225 232 229 209 201 201 200 195 191 196 191 189 193 196 196 202 190 185 197 236 253 277
167 167 166 164 162 161 160 160 162 168 174 173 175 180 182 184 196 202 198 204 212 223 223 217 208 204 197 199 184 191 203 187 197 208 201 203 219 198 191 191 191 251 297
163 165 164 160 160 162 164 164 162 161 168 169 159 151 155 165 184 184 178 191 210 205 195 199 193 197 186 183 180 189 205 186 203 217 211 214 238 227 215 202 185 182 234
157 160 161 163 160 158 156 154 155 160 161 162 164 156 151 158 164 139 124 140 158 133 122 131 144 176 183 188 178 184 204 195 215 210 208 240 265 273 268 239 207 184 187
163 165 161 163 153 148 151 152 153 150 151 153 148 137 130 121 111 107 103 102 93 101 107 111 114 125 130 151 159 211 218 210 222 234 218 248 259 286 321 338 358 187 162
163 160 155 152 150 157 159 154 155 156 159 153 139 136 124 111 103 97 90 90 91 99 102 91 89 100 90 97 122 215 223 198 222 245 219 277 274 24 339 352 12 13 168
155 151 148 149 156 159 159 156 157 159 155 146 134 127 116 109 107 100 92 86 87 80 79 87 93 87 69 62 30 97 101 103 93 105 128 275 56 12 351 11 10 343 72
157 154 150 154 158 158 156 154 157 154 149 143 135 130 129 128 121 109 98 88 84 76 67 67 64 64 65 63 66 78 79 75 63 59 60 55 83 76 50 42 18 44 61
157 158 156 156 152 147 149 150 151 152 148 143 139 139 138 132 123 115 108 97 85 80 72 63 54 50 57 62 76 87 90 83 67 56 59 64 73 71 69 69 49 52 68
166 162 156 154 155 155 154 148 150 153 147 145 143 138 132 124 121 117 108 98 86 77 71 64 61 54 48 54 70 86 81 85 81 74 64 63 60 66 68 69 68 71 81
164 163 163 162 163 161 156 151 150 148 146 147 143 140 141 133 129 120 103 94 86 82 75 65 66 64 51 56 65 74 80 78 74 74 67 66 60 61 64 64 63 59 61
162 163 160 154 151 145 143 142 141 141 142 141 136 138 135 128 119 109 101 93 89 86 80 69 66 67 57 62 72 77 77 74 65 61 64 69 55 59 73 72 66 56 45
156 154 152 145 138 137 140 134 134 135 135 135 135 136 133 127 119 109 101 95 92 84 76 70 66 66 54 63 76 79 81 77 64 56 58 63 54 50 68 76 72 55 34
128 131 130 126 127 131 129 126 127 126 129 131 129 126 124 121 119 114 106 98 96 92 86 72 61 66 59 60 73 78 88 85 70 55 49 52 53 47 57 76 80 68 27
117 120 121 126 131 128 124 124 124 127 125 117 111 109 113 118 119 116 113 110 105 96 87 81 62 53 51 58 69 73 84 95 86 68 46 35 50 57 58 69 71 76 69
111 115 117 115 119 125 128 127 128 127 117 111 107 108 110 113 115 115 111 108 108 102 94 87 69 45 38 53 66 71 76 86 92 79 53 44 53 55 55 58 57 60 65
111 114 117 115 112 116 126 130 132 126 120 113 110 106 98 91 98 109 112 111 108 107 103 98 89 59 35 44 59 65 68 70 76 74 74 64 57 50 45 43 48 53 58
113 116 119 121 119 117 120 128 130 128 124 121 117 111 104 95 84 86 96 108 110 111 110 108 105 85 52 39 38 43 53 60 66 65 56 54 52 51 42 36 37 42 57
108 114 121 125 127 125 124 129 131 129 125 123 119 113 109 108 94 80 70 89 92 133 137 137 133 126 106 354 76 90 69 72 81 75 55 49 45 43 39 34 31 36 45
116 115 116 122 129 131 131 136 139 137 134 130 129 125 121 115 113 108 86 60 75 89 102 115 122 105 115 110 94 82 78 80 86 81 70 62 58 58 56 52 37 36 45
Height
1543 1545 1547 1549 1551 1553 1554 1555 1556 1558 1559 1560 1562 1563 1564 1565 1566 1566 1567 1568 1569 1570 1571 1571 1572 1573 1574 1575 1575 1576 1577 1577 1578 1579 1579 1579 1579 1579 1580 1580 1580 1580 1580
1542 1544 1546 1548 1549 1551 1552 1553 1555 1556 1558 1559 1561 1562 1563 1563 1564 1564 1565 1566 1567 1568 1568 1569 1570 1571 1572 1573 1574 1574 1575 1576 1577 1577 1577 1577 1578 1577 1578 1578 1578 1578 1578
1539 1542 1545 1547 1548 1550 1551 1553 1554 1556 1557 1558 1559 1560 1561 1561 1562 1562 1563 1564 1564 1565 1566 1567 1568 1569 1570 1570 1572 1573 1573 1574 1575 1575 1576 1576 1575 1575 1576 1575 1575 1575 1576
1539 1541 1543 1545 1547 1549 1551 1552 1554 1555 1556 1557 1558 1558 1558 1559 1559 1560 1561 1561 1562 1563 1564 1565 1565 1566 1567 1568 1569 1570 1571 1572 1573 1573 1574 1574 1574 1574 1573 1574 1573 1573 1573
1537 1540 1542 1544 1546 1549 1550 1551 1553 1554 1555 1556 1556 1556 1557 1557 1558 1558 1558 1559 1560 1560 1561 1562 1563 1564 1565 1566 1567 1568 1569 1569 1570 1571 1571 1572 1572 1572 1572 1571 1571 1571 1571
1536 1539 1541 1544 1546 1548 1550 1551 1552 1553 1554 1554 1555 1555 1555 1555 1556 1556 1556 1556 1557 1558 1559 1560 1561 1562 1563 1563 1565 1566 1566 1567 1568 1568 1569 1569 1569 1569 1570 1569 1568 1568 1568
1534 1537 1540 1542 1545 1547 1549 1550 1551 1552 1552 1553 1553 1553 1554 1554 1554 1554 1554 1555 1555 1556 1556 1557 1558 1559 1560 1561 1562 1563 1564 1565 1565 1566 1566 1566 1567 1567 1567 1567 1566 1565 1565
1533 1535 1538 1540 1543 1546 1548 1549 1550 1551 1551 1552 1552 1552 1553 1553 1553 1553 1553 1553 1553 1554 1555 1555 1556 1557 1558 1559 1560 1561 1561 1562 1562 1563 1563 1564 1564 1564 1564 1564 1564 1563 1563
1532 1535 1538 1540 1542 1544 1546 1548 1549 1550 1551 1551 1552 1552 1552 1552 1552 1552 1552 1552 1552 1552 1553 1554 1555 1555 1556 1557 1558 1558 1559 1559 1559 1560 1561 1561 1561 1561 1561 1561 1561 1562 1560
1531 1534 1538 1540 1542 1544 1546 1548 1549 1550 1550 1551 1551 1551 1551 1552 1552 1551 1551 1551 1551 1551 1552 1552 1553 1553 1554 1555 1555 1556 1556 1557 1557 1557 1558 1558 1558 1558 1558 1558 1558 1558 1558
1529 1532 1536 1540 1542 1544 1546 1547 1548 1549 1550 1551 1551 1551 1551 1551 1551 1551 1550 1550 1550 1551 1551 1551 1551 1551 1552 1553 1553 1553 1554 1554 1554 1555 1555 1555 1555 1555 1555 1555 1555 1555 1555
1529 1532 1535 1537 1540 1543 1545 1546 1547 1549 1550 1551 1551 1551 1551 1551 1551 1551 1550 1550 1550 1550 1550 1550 1550 1550 1550 1551 1551 1551 1551 1551 1552 1552 1552 1552 1552 1552 1552 1552 1552 1552 1551
1529 1532 1534 1537 1540 1542 1544 1546 1547 1548 1550 1550 1551 1551 1551 1551 1551 1551 1550 1550 1550 1550 1550 1550 1549 1550 1550 1550 1550 1550 1549 1549 1549 1549 1549 1549 1549 1549 1549 1549 1549 1549 1549
1527 1530 1533 1536 1539 1541 1543 1545 1546 1548 1549 1550 1550 1550 1551 1550 1550 1550 1550 1550 1550 1550 1550 1550 1549 1549 1549 1549 1548 1548 1548 1548 1548 1547 1547 1547 1546 1546 1547 1547 1547 1546 1546
1527 1529 1532 1535 1538 1540 1542 1544 1546 1547 1548 1549 1550 1550 1550 1550 1550 1550 1550 1550 1550 1550 1550 1549 1549 1548 1548 1548 1547 1547 1547 1546 1546 1546 1545 1545 1545 1544 1544 1544 1544 1544 1543
1525 1528 1531 1534 1536 1539 1541 1543 1545 1546 1548 1549 1549 1549 1550 1550 1550 1550 1550 1550 1550 1550 1549 1549 1549 1548 1547 1547 1547 1547 1546 1546 1545 1545 1545 1544 1544 1543 1543 1543 1543 1542 1542
1522 1526 1529 1532 1534 1537 1539 1541 1543 1546 1547 1547 1548 1549 1550 1550 1550 1550 1550 1550 1550 1550 1549 1549 1548 1548 1547 1547 1547 1546 1546 1545 1545 1544 1544 1544 1543 1543 1542 1542 1542 1541 1540
1522 1525 1528 1530 1533 1536 1538 1541 1542 1544 1545 1546 1547 1548 1549 1549 1550 1550 1550 1550 1550 1549 1549 1549 1548 1548 1547 1547 1547 1546 1546 1545 1545 1545 1544 1544 1543 1543 1543 1542 1541 1540 1540
1520 1523 1526 1528 1531 1534 1537 1539 1541 1542 1544 1545 1546 1547 1548 1548 1549 1549 1550 1550 1550 1549 1549 1548 1548 1547 1547 1547 1547 1546 1546 1545 1545 1545 1544 1544 1544 1543 1543 1542 1541 1540 1540
1521 1523 1526 1528 1531 1533 1536 1538 1540 1541 1543 1544 1545 1546 1547 1548 1548 1549 1549 1549 1549 1549 1549 1548 1548 1548 1547 1548 1548 1547 1547 1546 1545 1545 1545 1544 1544 1544 1543 1542 1541 1540 1540
1521 1523 1526 1528 1530 1532 1535 1537 1538 1540 1542 1544 1544 1545 1546 1547 1547 1548 1548 1549 1549 1549 1549 1549 1548 1548 1548 1548 1548 1548 1547 1546 1546 1545 1545 1545 1545 1544 1543 1543 1542 1541 1541
1521 1524 1526 1528 1531 1533 1535 1536 1538 1540 1542 1543 1544 1545 1546 1547 1547 1547 1548 1548 1549 1549 1549 1549 1549 1549 1549 1549 1549 1548 1548 1547 1546 1546 1546 1546 1546 1545 1544 1543 1543 1542 1542
1522 1524 1527 1528 1531 1532 1534 1535 1537 1539 1540 1542 1543 1544 1546 1546 1547 1547 1547 1548 1548 1549 1549 1549 1549 1549 1549 1549 1549 1549 1548 1548 1548 1547 1547 1547 1547 1546 1545 1545 1544 1543 1543
1522 1524 1526 1528 1530 1532 1533 1534 1535 1538 1539 1540 1542 1543 1544 1545 1546 1547 1547 1548 1548 1548 1549 1549 1549 1549 1549 1550 1550 1550 1550 1549 1549 1548 1548 1548 1548 1547 1547 1546 1545 1545 1544
1523 1525 1526 1527 1529 1531 1533 1534 1536 1537 1538 1540 1541 1542 1544 1545 1546 1546 1547 1548 1548 1549 1549 1550 1550 1550 1550 1550 1551 1551 1551 1551 1550 1550 1550 1549 1549 1549 1548 1548 1547 1547 1546
1523 1524 1526 1527 1529 1531 1532 1534 1535 1536 1537 1539 1540 1541 1543 1544 1545 1545 1547 1548 1549 1549 1550 1550 1550 1550 1551 1551 1552 1552 1552 1552 1552 1552 1551 1551 1550 1550 1550 1550 1549 1549 1548